Time,TemperatureF,DewpointF,PressureIn,WindDirection,WindDirectionDegrees,WindSpeedMPH,WindSpeedGustMPH,Humidity,HourlyPrecipIn,Conditions,Clouds,dailyrainin,SoftwareType,DateUTC
2013-06-29 02:55:00,64.2,34.5,28.64,West,264,0.0,3.0,33,0.00,CLR,,0.00,WeatherDisplay:10.37,2013-06-29 06:55:00,
2013-06-29 03:00:00,64.2,34.5,28.64,West,276,0.0,0.0,33,0.00,CLR,,0.00,WeatherDisplay:10.37,2013-06-29 07:00:00,
2013-06-29 03:05:00,64.2,35.2,28.64,West,269,0.0,5.0,34,0.00,CLR,,0.00,WeatherDisplay:10.37,2013-06-29 07:05:00,
2013-06-29 03:10:00,64.2,35.2,28.64,West,259,0.0,6.0,34,0.00,CLR,,0.00,WeatherDisplay:10.37,2013-06-29 07:10:00,
2013-06-29 03:15:00,64.2,35.2,28.64,WSW,256,3.0,6.0,34,0.00,CLR,,0.00,WeatherDisplay:10.37,2013-06-29 07:15:00,
2013-06-29 03:20:00,64.2,35.2,28.64,WSW,248,0.0,5.0,34,0.00,CLR,,0.00,WeatherDisplay:10.37,2013-06-29 07:20:00,
2013-06-29 03:25:00,64.4,34.6,28.61,WSW,249,2.0,4.0,33,0.00,CLR,,0.00,WeatherDisplay:10.37,2013-06-29 07:25:00,
2013-06-29 03:30:00,64.4,34.6,28.61,WSW,256,0.0,4.0,33,0.00,CLR,,0.00,WeatherDisplay:10.37,2013-06-29 07:30:00,
2013-06-29 03:35:00,64.4,34.6,28.61,WSW,254,2.0,4.0,33,0.00,CLR,,0.00,WeatherDisplay:10.37,2013-06-29 07:35:00,
2013-06-29 03:40:00,64.4,35.4,28.61,WSW,249,2.0,4.0,34,0.00,CLR,,0.00,WeatherDisplay:10.37,2013-06-29 07:40:00,
2013-06-29 03:45:00,64.4,35.4,28.61,WSW,253,2.0,5.0,34,0.00,CLR,,0.00,WeatherDisplay:10.37,2013-06-29 07:45:00,
2013-06-29 03:50:00,64.4,35.4,28.61,WSW,258,0.0,3.0,34,0.00,CLR,,0.00,WeatherDisplay:10.37,2013-06-29 07:50:00,
2013-06-29 03:55:00,64.4,35.4,28.61,WSW,255,2.0,6.0,34,0.00,CLR,,0.00,WeatherDisplay:10.37,2013-06-29 07:55:00,
2013-06-29 04:00:00,64.2,35.2,28.61,WSW,257,0.0,3.0,34,0.00,CLR,,0.00,WeatherDisplay:10.37,2013-06-29 08:00:00,
2013-06-29 04:05:00,64.2,35.2,28.61,West,261,0.0,3.0,34,0.00,CLR,,0.00,WeatherDisplay:10.37,2013-06-29 08:05:00,
2013-06-29 04:10:00,64.2,35.2,28.61,West,272,0.0,3.0,34,0.00,CLR,,0.00,WeatherDisplay:10.37,2013-06-29 08:10:00,
2013-06-29 04:15:00,64.2,36.0,28.61,WNW,292,0.0,3.0,35,0.00,CLR,,0.00,WeatherDisplay:10.37,2013-06-29 08:15:00,
2013-06-29 04:20:00,64.2,36.0,28.61,WNW,297,0.0,3.0,35,0.00,CLR,,0.00,WeatherDisplay:10.37,2013-06-29 08:20:00,
2013-06-29 04:25:00,64.2,36.0,28.61,WNW,302,0.0,0.0,35,0.00,CLR,,0.00,WeatherDisplay:10.37,2013-06-29 08:25:00,
2013-06-29 04:30:00,64.1,35.9,28.61,NW,304,0.0,0.0,35,0.00,CLR,,0.00,WeatherDisplay:10.37,2013-06-29 08:30:00,
2013-06-29 04:35:00,64.0,35.8,28.61,NW,304,0.0,0.0,35,0.00,CLR,,0.00,WeatherDisplay:10.37,2013-06-29 08:35:00,
2013-06-29 04:40:00,63.9,35.7,28.61,NW,304,0.0,0.0,35,0.00,CLR,,0.00,WeatherDisplay:10.37,2013-06-29 08:40:00,
2013-06-29 04:45:00,63.7,35.5,28.61,NW,304,0.0,0.0,35,0.00,CLR,,0.00,WeatherDisplay:10.37,2013-06-29 08:45:00,
2013-06-29 04:50:00,63.5,35.3,28.61,NW,304,0.0,0.0,35,0.00,CLR,,0.00,WeatherDisplay:10.37,2013-06-29 08:50:00,
2013-06-29 04:55:00,63.3,35.2,28.61,NW,304,0.0,0.0,35,0.00,CLR,,0.00,WeatherDisplay:10.37,2013-06-29 08:55:00,
2013-06-29 05:00:00,63.2,35.8,28.61,NW,304,0.0,0.0,36,0.00,CLR,,0.00,WeatherDisplay:10.37,2013-06-29 09:00:00,
2013-06-29 05:05:00,63.1,35.0,28.61,NW,304,0.0,0.0,35,0.00,CLR,,0.00,WeatherDisplay:10.37,2013-06-29 09:05:00,
2013-06-29 05:10:00,63.0,35.6,28.61,NW,304,0.0,0.0,36,0.00,CLR,,0.00,WeatherDisplay:10.37,2013-06-29 09:10:00,
2013-06-29 05:15:00,63.0,35.6,28.61,NW,304,0.0,0.0,36,0.00,CLR,,0.00,WeatherDisplay:10.37,2013-06-29 09:15:00,
2013-06-29 05:20:00,62.8,35.4,28.61,NW,304,0.0,0.0,36,0.00,CLR,,0.00,WeatherDisplay:10.37,2013-06-29 09:20:00,
2013-06-29 05:25:00,62.6,35.3,28.61,NW,304,0.0,0.0,36,0.00,CLR,,0.00,WeatherDisplay:10.37,2013-06-29 09:25:00,
2013-06-29 05:30:00,62.6,35.3,28.61,NW,304,0.0,0.0,36,0.00,CLR,,0.00,WeatherDisplay:10.37,2013-06-29 09:30:00,
2013-06-29 05:35:00,62.4,35.1,28.61,NW,304,0.0,0.0,36,0.00,CLR,,0.00,WeatherDisplay:10.37,2013-06-29 09:35:00,
2013-06-29 05:40:00,62.2,35.6,28.61,NW,304,0.0,0.0,37,0.00,CLR,,0.00,WeatherDisplay:10.37,2013-06-29 09:40:00,
2013-06-29 05:45:00,62.1,35.5,28.61,NW,304,0.0,0.0,37,0.00,CLR,,0.00,WeatherDisplay:10.37,2013-06-29 09:45:00,
2013-06-29 05:50:00,61.8,34.5,28.61,NW,304,0.0,0.0,36,0.00,CLR,,0.00,WeatherDisplay:10.37,2013-06-29 09:50:00,
2013-06-29 05:55:00,61.7,34.5,28.61,NW,304,0.0,0.0,36,0.00,CLR,,0.00,WeatherDisplay:10.37,2013-06-29 09:55:00,
2013-06-29 06:00:00,61.7,35.1,28.61,NW,304,0.0,0.0,37,0.00,CLR,,0.00,WeatherDisplay:10.37,2013-06-29 10:00:00,
2013-06-29 06:05:00,61.7,35.1,28.61,NW,304,0.0,0.0,37,0.00,CLR,,0.00,WeatherDisplay:10.37,2013-06-29 10:05:00,
2013-06-29 06:10:00,61.7,35.1,28.64,NW,304,0.0,0.0,37,0.00,CLR,,0.00,WeatherDisplay:10.37,2013-06-29 10:10:00,
2013-06-29 06:15:00,61.5,35.0,28.64,NW,304,0.0,0.0,37,0.00,CLR,,0.00,WeatherDisplay:10.37,2013-06-29 10:15:00,
2013-06-29 06:20:00,61.5,35.0,28.64,NW,304,0.0,0.0,37,0.00,CLR,,0.00,WeatherDisplay:10.37,2013-06-29 10:20:00,
2013-06-29 06:25:00,61.7,35.1,28.62,NW,304,0.0,0.0,37,0.00,CLR,,0.00,WeatherDisplay:10.37,2013-06-29 10:25:00,
2013-06-29 06:30:00,61.7,35.1,28.61,NW,304,0.0,0.0,37,0.00,CLR,,0.00,WeatherDisplay:10.37,2013-06-29 10:30:00,
2013-06-29 06:35:00,61.7,35.1,28.61,WNW,293,0.0,0.0,37,0.00,CLR,,0.00,WeatherDisplay:10.37,2013-06-29 10:35:00,
2013-06-29 06:40:00,61.7,35.1,28.61,WSW,249,0.0,0.0,37,0.00,CLR,,0.00,WeatherDisplay:10.37,2013-06-29 10:40:00,
2013-06-29 06:45:00,61.9,35.3,28.61,SW,226,0.0,0.0,37,0.00,CLR,,0.00,WeatherDisplay:10.37,2013-06-29 10:45:00,
2013-06-29 06:50:00,62.2,35.6,28.61,SW,226,0.0,0.0,37,0.00,CLR,,0.00,WeatherDisplay:10.37,2013-06-29 10:50:00,
2013-06-29 06:55:00,62.6,35.9,28.61,SW,235,0.0,0.0,37,0.00,CLR,,0.00,WeatherDisplay:10.37,2013-06-29 10:55:00,
2013-06-29 07:00:00,63.0,36.3,28.61,WSW,252,0.0,0.0,37,0.00,CLR,,0.00,WeatherDisplay:10.37,2013-06-29 11:00:00,
2013-06-29 07:05:00,63.1,36.4,28.61,West,268,0.0,0.0,37,0.00,CLR,,0.00,WeatherDisplay:10.37,2013-06-29 11:05:00,
2013-06-29 07:10:00,63.5,36.7,28.61,West,274,0.0,3.0,37,0.00,CLR,,0.00,WeatherDisplay:10.37,2013-06-29 11:10:00,
2013-06-29 07:15:00,63.5,36.7,28.61,West,281,0.0,0.0,37,0.00,CLR,,0.00,WeatherDisplay:10.37,2013-06-29 11:15:00,
2013-06-29 07:20:00,63.7,36.9,28.61,WNW,300,0.0,3.0,37,0.00,CLR,,0.00,WeatherDisplay:10.37,2013-06-29 11:20:00,
2013-06-29 07:25:00,63.9,36.4,28.64,West,281,2.0,4.0,36,0.00,CLR,,0.00,WeatherDisplay:10.37,2013-06-29 11:25:00,
2013-06-29 07:30:00,63.9,37.1,28.64,West,264,2.0,4.0,37,0.00,CLR,,0.00,WeatherDisplay:10.37,2013-06-29 11:30:00,
2013-06-29 07:35:00,64.0,37.2,28.64,West,259,0.0,4.0,37,0.00,CLR,,0.00,WeatherDisplay:10.37,2013-06-29 11:35:00,
2013-06-29 07:40:00,64.2,37.4,28.64,WSW,255,0.0,3.0,37,0.00,CLR,,0.00,WeatherDisplay:10.37,2013-06-29 11:40:00,
2013-06-29 07:45:00,64.4,37.5,28.64,West,265,0.0,4.0,37,0.00,CLR,,0.00,WeatherDisplay:10.37,2013-06-29 11:45:00,
2013-06-29 07:50:00,64.7,37.8,28.64,West,263,2.0,4.0,37,0.00,CLR,,0.00,WeatherDisplay:10.37,2013-06-29 11:50:00,
2013-06-29 07:55:00,64.8,37.9,28.64,WSW,246,0.0,4.0,37,0.00,CLR,,0.00,WeatherDisplay:10.37,2013-06-29 11:55:00,
2013-06-29 08:05:00,64.9,37.3,28.64,West,279,0.0,0.0,36,0.00,CLR,,0.00,WeatherDisplay:10.37,2013-06-29 12:05:00,
2013-06-29 08:10:00,65.1,37.5,28.64,West,280,0.0,0.0,36,0.00,CLR,,0.00,WeatherDisplay:10.37,2013-06-29 12:10:00,
2013-06-29 08:15:00,65.3,37.6,28.64,WNW,297,0.0,3.0,36,0.00,CLR,,0.00,WeatherDisplay:10.37,2013-06-29 12:15:00,
2013-06-29 08:25:00,65.7,38.0,28.64,WNW,298,2.0,4.0,36,0.00,CLR,,0.00,WeatherDisplay:10.37,2013-06-29 12:25:00,
2013-06-29 08:30:00,65.7,37.2,28.64,WNW,301,0.0,0.0,35,0.00,CLR,,0.00,WeatherDisplay:10.37,2013-06-29 12:30:00,
2013-06-29 08:35:00,66.0,38.3,28.64,WNW,292,1.0,4.0,36,0.00,CLR,,0.00,WeatherDisplay:10.37,2013-06-29 12:35:00,
2013-06-29 08:40:00,66.2,38.4,28.64,WNW,296,0.0,4.0,36,0.00,CLR,,0.00,WeatherDisplay:10.37,2013-06-29 12:40:00,
2013-06-29 08:45:00,66.2,37.7,28.64,WNW,301,0.0,0.0,35,0.00,CLR,,0.00,WeatherDisplay:10.37,2013-06-29 12:45:00,
2013-06-29 08:50:00,66.4,37.9,28.64,WNW,286,0.0,0.0,35,0.00,CLR,,0.00,WeatherDisplay:10.37,2013-06-29 12:50:00,
2013-06-29 08:55:00,66.4,37.9,28.64,WNW,297,0.0,0.0,35,0.00,CLR,,0.00,WeatherDisplay:10.37,2013-06-29 12:55:00,
2013-06-29 09:00:00,66.7,38.2,28.64,NW,323,0.0,0.0,35,0.00,CLR,,0.00,WeatherDisplay:10.37,2013-06-29 13:00:00,
2013-06-29 09:05:00,67.1,39.2,28.64,NW,308,0.0,0.0,36,0.00,CLR,,0.00,WeatherDisplay:10.37,2013-06-29 13:05:00,
2013-06-29 09:10:00,67.5,38.8,28.64,West,270,0.0,0.0,35,0.00,CLR,,0.00,WeatherDisplay:10.37,2013-06-29 13:10:00,
2013-06-29 09:15:00,67.8,39.2,28.64,WSW,249,0.0,0.0,35,0.00,CLR,,0.00,WeatherDisplay:10.37,2013-06-29 13:15:00,
2013-06-29 09:20:00,68.2,38.7,28.64,WSW,255,0.0,4.0,34,0.00,CLR,,0.00,WeatherDisplay:10.37,2013-06-29 13:20:00,
2013-06-29 09:25:00,68.5,39.0,28.64,West,261,0.0,3.0,34,0.00,CLR,,0.00,WeatherDisplay:10.37,2013-06-29 13:25:00,
2013-06-29 09:30:00,68.8,39.3,28.64,WSW,251,0.0,4.0,34,0.00,CLR,,0.00,WeatherDisplay:10.37,2013-06-29 13:30:00,
2013-06-29 09:35:00,69.5,39.9,28.64,WSW,255,0.0,4.0,34,0.00,CLR,,0.00,WeatherDisplay:10.37,2013-06-29 13:35:00,
2013-06-29 09:40:00,69.8,39.4,28.64,West,260,0.0,5.0,33,0.00,CLR,,0.00,WeatherDisplay:10.37,2013-06-29 13:40:00,
2013-06-29 09:45:00,69.4,38.3,28.64,WNW,292,0.0,4.0,32,0.00,CLR,,0.00,WeatherDisplay:10.37,2013-06-29 13:45:00,
2013-06-29 09:50:00,69.3,36.5,28.64,WNW,303,2.0,4.0,30,0.00,CLR,,0.00,WeatherDisplay:10.37,2013-06-29 13:50:00,
2013-06-29 09:55:00,69.9,34.4,28.64,West,281,1.0,4.0,27,0.00,CLR,,0.00,WeatherDisplay:10.37,2013-06-29 13:55:00,
2013-06-29 10:00:00,70.3,33.8,28.64,West,262,2.0,4.0,26,0.00,CLR,,0.00,WeatherDisplay:10.37,2013-06-29 14:00:00,
2013-06-29 10:05:00,70.9,33.3,28.64,WSW,249,0.0,3.0,25,0.00,CLR,,0.00,WeatherDisplay:10.37,2013-06-29 14:05:00,
2013-06-29 10:10:00,72.0,31.1,28.64,West,265,0.0,3.0,22,0.00,CLR,,0.00,WeatherDisplay:10.37,2013-06-29 14:10:00,
2013-06-29 10:15:00,73.1,31.9,28.64,West,277,0.0,4.0,22,0.00,CLR,,0.00,WeatherDisplay:10.37,2013-06-29 14:15:00,
2013-06-29 10:20:00,72.7,26.7,28.64,West,271,2.0,4.0,18,0.00,CLR,,0.00,WeatherDisplay:10.37,2013-06-29 14:20:00,
2013-06-29 10:25:00,73.7,24.7,28.64,WNW,292,0.0,2.0,16,0.00,CLR,,0.00,WeatherDisplay:10.37,2013-06-29 14:25:00,
2013-06-29 10:30:00,73.9,19.9,28.64,NNW,332,1.0,4.0,13,0.00,CLR,,0.00,WeatherDisplay:10.37,2013-06-29 14:30:00,
2013-06-29 10:35:00,74.9,20.7,28.64,NW,313,0.0,3.0,13,0.00,CLR,,0.00,WeatherDisplay:10.37,2013-06-29 14:35:00,
2013-06-29 10:40:00,75.3,21.0,28.64,WNW,289,0.0,5.0,13,0.00,CLR,,0.00,WeatherDisplay:10.37,2013-06-29 14:40:00,
2013-06-29 10:45:00,75.2,20.9,28.64,West,264,0.0,6.0,13,0.00,CLR,,0.00,WeatherDisplay:10.37,2013-06-29 14:45:00,
2013-06-29 10:50:00,75.9,21.5,28.64,West,260,0.0,2.0,13,0.00,CLR,,0.00,WeatherDisplay:10.37,2013-06-29 14:50:00,
2013-06-29 10:55:00,77.4,22.7,28.64,West,269,2.0,4.0,13,0.00,CLR,,0.00,WeatherDisplay:10.37,2013-06-29 14:55:00,
2013-06-29 11:00:00,76.1,21.6,28.64,WNW,296,0.0,3.0,13,0.00,CLR,,0.00,WeatherDisplay:10.37,2013-06-29 15:00:00,
2013-06-29 11:05:00,75.8,21.4,28.64,North,349,0.0,2.0,13,0.00,CLR,,0.00,WeatherDisplay:10.37,2013-06-29 15:05:00,
2013-06-29 11:10:00,77.2,22.5,28.64,NNE,32,0.0,2.0,13,0.00,CLR,,0.00,WeatherDisplay:10.37,2013-06-29 15:10:00,
2013-06-29 11:15:00,77.8,23.0,28.64,North,359,0.0,4.0,13,0.00,CLR,,0.00,WeatherDisplay:10.37,2013-06-29 15:15:00,
2013-06-29 11:20:00,76.9,22.3,28.64,NNW,334,1.0,5.0,13,0.00,CLR,,0.00,WeatherDisplay:10.37,2013-06-29 15:20:00,
2013-06-29 11:25:00,77.0,22.4,28.64,North,5,1.0,4.0,13,0.00,CLR,,0.00,WeatherDisplay:10.37,2013-06-29 15:25:00,
2013-06-29 11:30:00,77.9,23.1,28.64,ENE,65,3.0,4.0,13,0.00,CLR,,0.00,WeatherDisplay:10.37,2013-06-29 15:30:00,
2013-06-29 11:35:00,77.9,23.1,28.64,ENE,62,2.0,4.0,13,0.00,CLR,,0.00,WeatherDisplay:10.37,2013-06-29 15:35:00,
2013-06-29 11:40:00,77.3,22.6,28.64,NNW,343,0.0,5.0,13,0.00,CLR,,0.00,WeatherDisplay:10.37,2013-06-29 15:40:00,
2013-06-29 11:45:00,76.5,21.9,28.64,NW,318,0.0,3.0,13,0.00,CLR,,0.00,WeatherDisplay:10.37,2013-06-29 15:45:00,
2013-06-29 11:50:00,76.9,22.3,28.64,NNW,344,0.0,3.0,13,0.00,CLR,,0.00,WeatherDisplay:10.37,2013-06-29 15:50:00,
2013-06-29 11:55:00,76.8,22.2,28.64,NE,56,2.0,3.0,13,0.00,CLR,,0.00,WeatherDisplay:10.37,2013-06-29 15:55:00,
2013-06-29 12:00:00,76.7,22.1,28.64,ENE,58,0.0,2.0,13,0.00,CLR,,0.00,WeatherDisplay:10.37,2013-06-29 16:00:00,
2013-06-29 12:05:00,76.6,22.1,28.64,North,1,0.0,3.0,13,0.00,CLR,,0.00,WeatherDisplay:10.37,2013-06-29 16:05:00,
2013-06-29 12:10:00,76.3,21.8,28.64,NE,44,0.0,0.0,13,0.00,CLR,,0.00,WeatherDisplay:10.37,2013-06-29 16:10:00,
2013-06-29 12:15:00,75.6,21.3,28.64,NNE,15,0.0,0.0,13,0.00,CLR,,0.00,WeatherDisplay:10.37,2013-06-29 16:15:00,
2013-06-29 12:20:00,75.2,20.9,28.64,NW,314,0.0,0.0,13,0.00,CLR,,0.00,WeatherDisplay:10.37,2013-06-29 16:20:00,
2013-06-29 12:25:00,75.0,20.8,28.64,NW,308,0.0,0.0,13,0.00,CLR,,0.00,WeatherDisplay:10.37,2013-06-29 16:25:00,
2013-06-29 12:30:00,75.4,21.1,28.64,NW,308,0.0,0.0,13,0.00,CLR,,0.00,WeatherDisplay:10.37,2013-06-29 16:30:00,
2013-06-29 12:35:00,75.0,20.8,28.64,North,351,1.0,4.0,13,0.00,CLR,,0.00,WeatherDisplay:10.37,2013-06-29 16:35:00,
2013-06-29 12:40:00,74.8,20.6,28.64,ENE,74,0.0,5.0,13,0.00,CLR,,0.00,WeatherDisplay:10.37,2013-06-29 16:40:00,
2013-06-29 12:45:00,74.7,20.5,28.64,East,82,0.0,0.0,13,0.00,CLR,,0.00,WeatherDisplay:10.37,2013-06-29 16:45:00,
2013-06-29 12:50:00,74.7,20.5,28.64,East,82,0.0,0.0,13,0.00,CLR,,0.00,WeatherDisplay:10.37,2013-06-29 16:50:00,
2013-06-29 12:55:00,75.3,21.0,28.64,East,97,0.0,0.0,13,0.00,CLR,,0.00,WeatherDisplay:10.37,2013-06-29 16:55:00,
2013-06-29 13:00:00,75.9,21.5,28.64,SE,138,0.0,4.0,13,0.00,CLR,,0.00,WeatherDisplay:10.37,2013-06-29 17:00:00,
2013-06-29 13:05:00,76.7,22.1,28.64,SSE,164,2.0,3.0,13,0.00,CLR,,0.00,WeatherDisplay:10.37,2013-06-29 17:05:00,
2013-06-29 13:10:00,77.1,22.4,28.64,SSE,154,0.0,3.0,13,0.00,CLR,,0.00,WeatherDisplay:10.37,2013-06-29 17:10:00,
2013-06-29 13:15:00,78.2,23.3,28.64,South,187,0.0,4.0,13,0.00,CLR,,0.00,WeatherDisplay:10.37,2013-06-29 17:15:00,
2013-06-29 13:20:00,79.5,22.4,28.64,SSE,165,0.0,4.0,12,0.00,CLR,,0.00,WeatherDisplay:10.37,2013-06-29 17:20:00,
2013-06-29 13:25:00,79.7,22.6,28.64,SE,137,0.0,3.0,12,0.00,CLR,,0.00,WeatherDisplay:10.37,2013-06-29 17:25:00,
2013-06-29 13:30:00,80.0,22.8,28.64,SE,127,0.0,4.0,12,0.00,CLR,,0.00,WeatherDisplay:10.37,2013-06-29 17:30:00,
2013-06-29 13:35:00,78.9,21.9,28.64,ESE,115,0.0,4.0,12,0.00,CLR,,0.00,WeatherDisplay:10.37,2013-06-29 17:35:00,
2013-06-29 13:40:00,77.4,22.7,28.64,West,274,3.0,6.0,13,0.00,CLR,,0.00,WeatherDisplay:10.37,2013-06-29 17:40:00,
2013-06-29 13:45:00,76.3,21.8,28.64,West,271,0.0,0.0,13,0.00,CLR,,0.00,WeatherDisplay:10.37,2013-06-29 17:45:00,
2013-06-29 13:50:00,75.9,21.5,28.64,WSW,258,0.0,2.0,13,0.00,CLR,,0.00,WeatherDisplay:10.37,2013-06-29 17:50:00,
2013-06-29 13:55:00,75.6,21.2,28.64,WSW,257,0.0,0.0,13,0.00,CLR,,0.00,WeatherDisplay:10.37,2013-06-29 17:55:00,
2013-06-29 14:00:00,75.2,21.0,28.64,WSW,252,2.0,6.0,13,0.00,CLR,,0.00,WeatherDisplay:10.37,2013-06-29 18:00:00,
2013-06-29 14:05:00,74.5,20.4,28.64,WSW,250,2.0,6.0,13,0.00,CLR,,0.00,WeatherDisplay:10.37,2013-06-29 18:05:00,
2013-06-29 14:10:00,73.9,19.9,28.64,WSW,243,2.0,6.0,13,0.00,CLR,,0.00,WeatherDisplay:10.37,2013-06-29 18:10:00,
2013-06-29 14:15:00,73.4,24.4,28.64,WSW,250,3.0,4.0,16,0.00,CLR,,0.00,WeatherDisplay:10.37,2013-06-29 18:15:00,
2013-06-29 14:20:00,72.6,20.6,28.64,WSW,244,6.0,8.0,14,0.00,CLR,,0.00,WeatherDisplay:10.37,2013-06-29 18:20:00,
2013-06-29 14:25:00,72.0,23.3,28.64,WSW,243,3.0,8.0,16,0.00,CLR,,0.00,WeatherDisplay:10.37,2013-06-29 18:25:00,
2013-06-29 14:30:00,71.6,23.0,28.64,WSW,250,3.0,8.0,16,0.00,CLR,,0.00,WeatherDisplay:10.37,2013-06-29 18:30:00,
2013-06-29 14:35:00,71.6,23.0,28.64,WSW,255,6.0,8.0,16,0.00,CLR,,0.00,WeatherDisplay:10.37,2013-06-29 18:35:00,
2013-06-29 14:40:00,71.6,23.0,28.64,WSW,257,5.0,8.0,16,0.00,CLR,,0.00,WeatherDisplay:10.37,2013-06-29 18:40:00,
2013-06-29 14:45:00,71.8,23.1,28.64,WSW,250,6.0,8.0,16,0.00,CLR,,0.00,WeatherDisplay:10.37,2013-06-29 18:45:00,
2013-06-29 14:50:00,72.4,23.6,28.64,WSW,250,3.0,8.0,16,0.00,CLR,,0.00,WeatherDisplay:10.37,2013-06-29 18:50:00,
2013-06-29 14:55:00,72.9,24.0,28.64,WSW,253,2.0,8.0,16,0.00,CLR,,0.00,WeatherDisplay:10.37,2013-06-29 18:55:00,
2013-06-29 15:00:00,73.4,24.4,28.64,WSW,253,3.0,6.0,16,0.00,CLR,,0.00,WeatherDisplay:10.37,2013-06-29 19:00:00,
2013-06-29 15:05:00,73.9,24.9,28.64,WSW,249,2.0,6.0,16,0.00,CLR,,0.00,WeatherDisplay:10.37,2013-06-29 19:05:00,
2013-06-29 15:10:00,74.0,24.9,28.64,WSW,240,3.0,6.0,16,0.00,CLR,,0.00,WeatherDisplay:10.37,2013-06-29 19:10:00,
2013-06-29 15:15:00,74.3,25.2,28.64,SW,233,1.0,9.0,16,0.00,CLR,,0.00,WeatherDisplay:10.37,2013-06-29 19:15:00,
2013-06-29 15:20:00,74.9,25.6,28.64,WSW,240,5.0,9.0,16,0.00,CLR,,0.00,WeatherDisplay:10.37,2013-06-29 19:20:00,
2013-06-29 15:25:00,74.8,25.6,28.67,WSW,247,6.0,10.0,16,0.00,CLR,,0.00,WeatherDisplay:10.37,2013-06-29 19:25:00,
2013-06-29 15:35:00,75.2,24.4,28.67,WSW,253,6.0,10.0,15,0.00,CLR,,0.00,WeatherDisplay:10.37,2013-06-29 19:35:00,
2013-06-29 15:40:00,75.0,25.8,28.64,WSW,242,6.0,13.0,16,0.00,CLR,,0.00,WeatherDisplay:10.37,2013-06-29 19:40:00,
2013-06-29 15:45:00,74.8,25.6,28.64,SW,236,5.0,8.0,16,0.00,CLR,,0.00,WeatherDisplay:10.37,2013-06-29 19:45:00,
2013-06-29 15:50:00,75.0,25.7,28.64,WSW,239,8.0,12.0,16,0.00,CLR,,0.00,WeatherDisplay:10.37,2013-06-29 19:50:00,
2013-06-29 15:55:00,75.2,24.3,28.67,WSW,245,3.0,8.0,15,0.00,CLR,,0.00,WeatherDisplay:10.37,2013-06-29 19:55:00,
2013-06-29 16:00:00,74.7,25.5,28.67,WSW,249,6.0,10.0,16,0.00,CLR,,0.00,WeatherDisplay:10.37,2013-06-29 20:00:00,
2013-06-29 16:05:00,74.4,25.2,28.67,WSW,256,3.0,8.0,16,0.00,CLR,,0.00,WeatherDisplay:10.37,2013-06-29 20:05:00,
2013-06-29 16:10:00,73.8,24.8,28.67,West,260,5.0,8.0,16,0.00,CLR,,0.00,WeatherDisplay:10.37,2013-06-29 20:10:00,
2013-06-29 16:15:00,73.2,24.3,28.67,WSW,258,5.0,8.0,16,0.00,CLR,,0.00,WeatherDisplay:10.37,2013-06-29 20:15:00,
2013-06-29 16:25:00,73.4,24.5,28.64,WSW,255,5.0,7.0,16,0.00,CLR,,0.00,WeatherDisplay:10.37,2013-06-29 20:25:00,
2013-06-29 16:30:00,73.8,24.7,28.64,West,261,5.0,7.0,16,0.00,CLR,,0.00,WeatherDisplay:10.37,2013-06-29 20:30:00,
2013-06-29 16:35:00,73.7,24.7,28.64,West,280,3.0,6.0,16,0.00,CLR,,0.00,WeatherDisplay:10.37,2013-06-29 20:35:00,
2013-06-29 16:40:00,73.6,24.6,28.67,WNW,285,3.0,6.0,16,0.00,CLR,,0.00,WeatherDisplay:10.37,2013-06-29 20:40:00,
2013-06-29 16:50:00,73.6,24.6,28.67,WNW,297,0.0,0.0,16,0.00,CLR,,0.00,WeatherDisplay:10.37,2013-06-29 20:50:00,
2013-06-29 16:55:00,73.6,24.6,28.67,NW,305,0.0,0.0,16,0.00,CLR,,0.00,WeatherDisplay:10.37,2013-06-29 20:55:00,
2013-06-29 17:00:00,73.4,24.4,28.67,NW,316,0.0,0.0,16,0.00,CLR,,0.00,WeatherDisplay:10.37,2013-06-29 21:00:00,
2013-06-29 17:05:00,73.2,24.3,28.67,NNW,332,0.0,0.0,16,0.00,CLR,,0.00,WeatherDisplay:10.37,2013-06-29 21:05:00,
2013-06-29 17:10:00,73.2,24.3,28.67,North,355,0.0,0.0,16,0.00,CLR,,0.00,WeatherDisplay:10.37,2013-06-29 21:10:00,
2013-06-29 17:20:00,73.0,24.2,28.67,ENE,72,0.0,4.0,16,0.00,CLR,,0.00,WeatherDisplay:10.37,2013-06-29 21:20:00,
2013-06-29 17:25:00,73.0,24.2,28.67,ENE,68,3.0,6.0,16,0.00,CLR,,0.00,WeatherDisplay:10.37,2013-06-29 21:25:00,
2013-06-29 17:30:00,73.0,24.2,28.67,ENE,69,0.0,4.0,16,0.00,CLR,,0.00,WeatherDisplay:10.37,2013-06-29 21:30:00,
2013-06-29 17:40:00,73.6,24.6,28.67,ENE,68,3.0,5.0,16,0.00,CLR,,0.00,WeatherDisplay:10.37,2013-06-29 21:40:00,
2013-06-29 17:45:00,73.6,24.6,28.67,East,80,2.0,4.0,16,0.00,CLR,,0.00,WeatherDisplay:10.37,2013-06-29 21:45:00,
2013-06-29 17:50:00,73.9,24.9,28.67,ENE,77,3.0,4.0,16,0.00,CLR,,0.00,WeatherDisplay:10.37,2013-06-29 21:50:00,
2013-06-29 17:55:00,73.9,19.9,28.67,East,79,5.0,6.0,13,0.00,CLR,,0.00,WeatherDisplay:10.37,2013-06-29 21:55:00,
2013-06-29 18:00:00,73.4,24.5,28.67,ENE,75,3.0,6.0,16,0.00,CLR,,0.00,WeatherDisplay:10.37,2013-06-29 22:00:00,
2013-06-29 18:05:00,73.2,24.3,28.67,ENE,66,5.0,6.0,16,0.00,CLR,,0.00,WeatherDisplay:10.37,2013-06-29 22:05:00,
2013-06-29 18:10:00,72.9,20.8,28.67,ENE,63,3.0,7.0,14,0.00,CLR,,0.00,WeatherDisplay:10.37,2013-06-29 22:10:00,
2013-06-29 18:15:00,72.4,20.5,28.67,ENE,65,5.0,7.0,14,0.00,CLR,,0.00,WeatherDisplay:10.37,2013-06-29 22:15:00,
2013-06-29 18:20:00,72.1,20.3,28.67,ENE,67,3.0,6.0,14,0.00,CLR,,0.00,WeatherDisplay:10.37,2013-06-29 22:20:00,
2013-06-29 18:25:00,72.0,20.1,28.67,ENE,69,0.0,4.0,14,0.00,CLR,,0.00,WeatherDisplay:10.37,2013-06-29 22:25:00,
2013-06-29 18:30:00,72.1,20.3,28.67,ENE,71,2.0,4.0,14,0.00,CLR,,0.00,WeatherDisplay:10.37,2013-06-29 22:30:00,
2013-06-29 18:35:00,72.0,20.1,28.67,ENE,74,0.0,5.0,14,0.00,CLR,,0.00,WeatherDisplay:10.37,2013-06-29 22:35:00,
2013-06-29 18:40:00,72.0,23.3,28.67,East,82,2.0,4.0,16,0.00,CLR,,0.00,WeatherDisplay:10.37,2013-06-29 22:40:00,
2013-06-29 18:45:00,71.8,23.1,28.67,East,88,0.0,6.0,16,0.00,CLR,,0.00,WeatherDisplay:10.37,2013-06-29 22:45:00,
2013-06-29 18:50:00,71.8,23.1,28.67,East,87,0.0,4.0,16,0.00,CLR,,0.00,WeatherDisplay:10.37,2013-06-29 22:50:00,
2013-06-29 18:55:00,71.8,23.1,28.67,ENE,75,0.0,3.0,16,0.00,CLR,,0.00,WeatherDisplay:10.37,2013-06-29 22:55:00,
2013-06-29 19:00:00,72.0,23.3,28.67,ENE,68,0.0,0.0,16,0.00,CLR,,0.00,WeatherDisplay:10.37,2013-06-29 23:00:00,
2013-06-29 19:05:00,72.1,23.4,28.67,ENE,78,0.0,0.0,16,0.00,CLR,,0.00,WeatherDisplay:10.37,2013-06-29 23:05:00,
2013-06-29 19:10:00,72.1,23.4,28.67,East,87,0.0,0.0,16,0.00,CLR,,0.00,WeatherDisplay:10.37,2013-06-29 23:10:00,
2013-06-29 19:15:00,72.0,23.3,28.67,East,89,0.0,0.0,16,0.00,CLR,,0.00,WeatherDisplay:10.37,2013-06-29 23:15:00,
2013-06-29 19:20:00,71.8,23.1,28.67,East,89,0.0,0.0,16,0.00,CLR,,0.00,WeatherDisplay:10.37,2013-06-29 23:20:00,
2013-06-29 19:25:00,71.4,24.3,28.67,East,89,0.0,0.0,17,0.00,CLR,,0.00,WeatherDisplay:10.37,2013-06-29 23:25:00,
2013-06-29 19:30:00,71.2,24.1,28.67,East,89,0.0,0.0,17,0.00,CLR,,0.00,WeatherDisplay:10.37,2013-06-29 23:30:00,
2013-06-29 19:35:00,71.1,24.0,28.67,East,89,0.0,0.0,17,0.00,CLR,,0.00,WeatherDisplay:10.37,2013-06-29 23:35:00,
2013-06-29 19:40:00,70.7,23.7,28.67,ENE,58,0.0,0.0,17,0.00,CLR,,0.00,WeatherDisplay:10.37,2013-06-29 23:40:00,
2013-06-29 19:45:00,70.4,23.5,28.67,NNW,340,0.0,0.0,17,0.00,CLR,,0.00,WeatherDisplay:10.37,2013-06-29 23:45:00,
2013-06-29 19:50:00,70.3,23.4,28.67,NW,326,0.0,0.0,17,0.00,CLR,,0.00,WeatherDisplay:10.37,2013-06-29 23:50:00,
2013-06-29 19:55:00,70.2,23.3,28.70,NNW,329,0.0,0.0,17,0.00,CLR,,0.00,WeatherDisplay:10.37,2013-06-29 23:55:00,
2013-06-29 20:00:00,70.2,23.3,28.70,NNW,330,0.0,3.0,17,0.00,CLR,,0.00,WeatherDisplay:10.37,2013-06-30 00:00:00,
2013-06-29 20:05:00,70.0,23.1,28.70,NW,326,0.0,0.0,17,0.00,CLR,,0.00,WeatherDisplay:10.37,2013-06-30 00:05:00,
2013-06-29 20:10:00,70.0,23.1,28.70,NW,325,0.0,0.0,17,0.00,CLR,,0.00,WeatherDisplay:10.37,2013-06-30 00:10:00,
2013-06-29 20:15:00,69.8,23.0,28.70,NW,310,0.0,0.0,17,0.00,CLR,,0.00,WeatherDisplay:10.37,2013-06-30 00:15:00,
2013-06-29 20:20:00,69.6,22.9,28.70,WSW,258,5.0,7.0,17,0.00,CLR,,0.00,WeatherDisplay:10.37,2013-06-30 00:20:00,
2013-06-29 20:25:00,69.2,22.5,28.70,West,266,0.0,6.0,17,0.00,CLR,,0.00,WeatherDisplay:10.37,2013-06-30 00:25:00,
2013-06-29 20:30:00,68.9,22.2,28.70,WNW,294,0.0,4.0,17,0.00,CLR,,0.00,WeatherDisplay:10.37,2013-06-30 00:30:00,
2013-06-29 20:35:00,68.5,25.8,28.70,WNW,302,0.0,4.0,20,0.00,CLR,,0.00,WeatherDisplay:10.37,2013-06-30 00:35:00,
2013-06-29 20:40:00,68.4,25.7,28.70,WNW,301,0.0,0.0,20,0.00,CLR,,0.00,WeatherDisplay:10.37,2013-06-30 00:40:00,
2013-06-29 20:45:00,68.2,25.5,28.70,WNW,301,0.0,0.0,20,0.00,CLR,,0.00,WeatherDisplay:10.37,2013-06-30 00:45:00,
2013-06-29 20:50:00,68.0,25.4,28.70,WNW,301,0.0,0.0,20,0.00,CLR,,0.00,WeatherDisplay:10.37,2013-06-30 00:50:00,
2013-06-29 20:55:00,67.8,25.2,28.70,WNW,300,0.0,0.0,20,0.00,CLR,,0.00,WeatherDisplay:10.37,2013-06-30 00:55:00,
2013-06-29 21:00:00,67.6,25.1,28.70,WNW,300,0.0,0.0,20,0.00,CLR,,0.00,WeatherDisplay:10.37,2013-06-30 01:00:00,
2013-06-29 21:05:00,67.6,25.1,28.70,WNW,300,0.0,0.0,20,0.00,CLR,,0.00,WeatherDisplay:10.37,2013-06-30 01:05:00,
2013-06-29 21:10:00,67.6,25.1,28.70,WNW,300,0.0,0.0,20,0.00,CLR,,0.00,WeatherDisplay:10.37,2013-06-30 01:10:00,
2013-06-29 21:15:00,67.5,24.9,28.70,WNW,300,0.0,0.0,20,0.00,CLR,,0.00,WeatherDisplay:10.37,2013-06-30 01:15:00,
2013-06-29 21:20:00,67.3,24.8,28.70,WNW,300,0.0,0.0,20,0.00,CLR,,0.00,WeatherDisplay:10.37,2013-06-30 01:20:00,
2013-06-29 21:30:00,67.1,26.9,28.70,WNW,300,0.0,0.0,22,0.00,CLR,,0.00,WeatherDisplay:10.37,2013-06-30 01:30:00,
2013-06-29 21:35:00,66.9,27.9,28.70,WNW,300,0.0,0.0,23,0.00,CLR,,0.00,WeatherDisplay:10.37,2013-06-30 01:35:00,
2013-06-29 21:40:00,66.9,27.9,28.70,WNW,300,0.0,0.0,23,0.00,CLR,,0.00,WeatherDisplay:10.37,2013-06-30 01:40:00,
2013-06-29 21:45:00,66.9,27.9,28.70,WNW,300,0.0,0.0,23,0.00,CLR,,0.00,WeatherDisplay:10.37,2013-06-30 01:45:00,
2013-06-29 21:50:00,66.7,27.7,28.70,WNW,300,0.0,0.0,23,0.00,CLR,,0.00,WeatherDisplay:10.37,2013-06-30 01:50:00,
2013-06-29 21:55:00,66.9,27.9,28.70,WNW,300,0.0,0.0,23,0.00,CLR,,0.00,WeatherDisplay:10.37,2013-06-30 01:55:00,
2013-06-29 22:00:00,66.9,27.9,28.70,WNW,300,0.0,0.0,23,0.00,CLR,,0.00,WeatherDisplay:10.37,2013-06-30 02:00:00,
2013-06-29 22:05:00,66.7,27.7,28.70,WNW,300,0.0,0.0,23,0.00,CLR,,0.00,WeatherDisplay:10.37,2013-06-30 02:05:00,
2013-06-29 22:10:00,66.7,27.7,28.70,WNW,300,0.0,0.0,23,0.00,CLR,,0.00,WeatherDisplay:10.37,2013-06-30 02:10:00,
2013-06-29 22:15:00,66.6,27.6,28.70,WNW,300,0.0,0.0,23,0.00,CLR,,0.00,WeatherDisplay:10.37,2013-06-30 02:15:00,
2013-06-29 22:20:00,66.6,27.6,28.70,WNW,300,0.0,0.0,23,0.00,CLR,,0.00,WeatherDisplay:10.37,2013-06-30 02:20:00,
2013-06-29 22:25:00,66.6,28.6,28.70,WNW,300,0.0,0.0,24,0.00,CLR,,0.00,WeatherDisplay:10.37,2013-06-30 02:25:00,
2013-06-29 22:30:00,66.6,28.6,28.70,WNW,301,0.0,2.0,24,0.00,CLR,,0.00,WeatherDisplay:10.37,2013-06-30 02:30:00,
2013-06-29 22:35:00,66.7,28.8,28.70,NNE,18,0.0,3.0,24,0.00,CLR,,0.00,WeatherDisplay:10.37,2013-06-30 02:35:00,
2013-06-29 22:40:00,66.9,28.9,28.73,ENE,64,0.0,0.0,24,0.00,CLR,,0.00,WeatherDisplay:10.37,2013-06-30 02:40:00,
2013-06-29 22:45:00,66.9,29.9,28.73,ENE,70,2.0,4.0,25,0.00,CLR,,0.00,WeatherDisplay:10.37,2013-06-30 02:45:00,
2013-06-29 22:50:00,67.1,30.1,28.73,ENE,68,0.0,3.0,25,0.00,CLR,,0.00,WeatherDisplay:10.37,2013-06-30 02:50:00,
2013-06-29 22:55:00,67.1,31.0,28.73,ENE,63,0.0,0.0,26,0.00,CLR,,0.00,WeatherDisplay:10.37,2013-06-30 02:55:00,
2013-06-29 23:00:00,66.9,30.9,28.73,ENE,63,0.0,0.0,26,0.00,CLR,,0.00,WeatherDisplay:10.37,2013-06-30 03:00:00,
2013-06-29 23:05:00,66.9,30.9,28.73,ENE,63,0.0,0.0,26,0.00,CLR,,0.00,WeatherDisplay:10.37,2013-06-30 03:05:00,
2013-06-29 23:10:00,66.9,30.9,28.73,ENE,63,0.0,0.0,26,0.00,CLR,,0.00,WeatherDisplay:10.37,2013-06-30 03:10:00,
2013-06-29 23:15:00,66.7,30.7,28.73,ENE,63,0.0,0.0,26,0.00,CLR,,0.00,WeatherDisplay:10.37,2013-06-30 03:15:00,
2013-06-29 23:20:00,66.7,30.7,28.73,ENE,63,0.0,0.0,26,0.00,CLR,,0.00,WeatherDisplay:10.37,2013-06-30 03:20:00,
2013-06-29 23:25:00,66.7,30.7,28.73,ENE,63,0.0,0.0,26,0.00,CLR,,0.00,WeatherDisplay:10.37,2013-06-30 03:25:00,
2013-06-29 23:30:00,66.7,31.7,28.73,ENE,63,0.0,0.0,27,0.00,CLR,,0.00,WeatherDisplay:10.37,2013-06-30 03:30:00,
2013-06-29 23:35:00,66.7,31.7,28.73,ENE,63,0.0,0.0,27,0.00,CLR,,0.00,WeatherDisplay:10.37,2013-06-30 03:35:00,
2013-06-29 23:40:00,66.7,31.7,28.73,ENE,63,0.0,0.0,27,0.00,CLR,,0.00,WeatherDisplay:10.37,2013-06-30 03:40:00,
2013-06-29 23:45:00,66.7,31.7,28.73,ENE,63,0.0,0.0,27,0.00,CLR,,0.00,WeatherDisplay:10.37,2013-06-30 03:45:00,
2013-06-29 23:50:00,66.6,31.5,28.73,ENE,63,0.0,0.0,27,0.00,CLR,,0.00,WeatherDisplay:10.37,2013-06-30 03:50:00,
2013-06-29 23:55:00,66.6,31.5,28.73,ENE,63,0.0,0.0,27,0.00,CLR,,0.00,WeatherDisplay:10.37,2013-06-30 03:55:00,